Simultaneous Nadir Overpasses (SNOs) Predictions

Prediction of SNOs between GOES-14 and NOAA-20 Satellite Orbit:

Table of predicted SNOs for the next 14.0 days since TLE Epoch: 2/11/2023
Index Date Time (GOES-14) GOES-14 Lat,Lon NOAA-20 Lat,Lon Distance(km) Time Diff (sec)
1 02/11/2023 20:52:12 -0.01,-108.24 -0.86,-111.97 425.25 80
2 02/12/2023 20:36:07 -0.01,-108.23 0.19,-107.45 90.18 80
3 02/15/2023 08:39:08 0.02,-108.13 0.01,-108.17 4.52 80
4 02/17/2023 20:39:38 -0.02,-108.14 -0.21,-108.92 89.31 80
5 02/18/2023 20:23:33 -0.02,-108.13 0.85,-104.40 425.71 80
6 02/20/2023 08:45:19 0.02,-108.04 0.40,-109.65 183.36 80
7 02/21/2023 08:23:53 0.02,-108.02 -0.61,-105.11 331.42 80
8 02/22/2023 20:45:48 -0.02,-108.06 -0.57,-110.41 268.07 80
9 02/23/2023 20:29:43 -0.02,-108.05 0.45,-105.87 247.41 80
